SCP
-0 -0 -1 -1 -1 -1 -1 -0 -0 -0 -0 -0 -0 -0 -0 -0 -0 -0 -0 -0 -0 -0 -0 0 0 0 0 -0 -0 -0 0 0 0 0 0 0 0 0 0 0 0 0 0
-1 -0 -1 -1 -1 -1 -1 -0 -0 -0 -0 -0 -0 -0 -0 -0 -0 -0 -0 -0 -0 -0 -0 -0 -0 -0 -0 -0 -0 -0 0 0 0 0 0 0 0 0 -0 -0 0 0 0
-1 -1 -1 -1 -1 -1 -0 -0 -0 -0 -0 -0 -0 -0 -0 -0 -0 -0 -0 -0 -0 -0 -0 -0 -0 -0 -0 -0 0 0 0 0 0 0 0 0 0 0 0 0 0 0 0
-0 -0 -0 -1 -1 -0 -0 -0 -0 -0 -0 -0 -0 -0 -0 -0 -0 -0 -0 -0 -0 -0 -0 -0 -0 -0 -0 0 0 0 0 0 0 0 0 0 0 0 0 0 0 0 0
-0 -0 0 -0 -1 -0 -0 -0 -0 -0 -0 -0 -0 -0 -0 -0 -0 -0 -0 -0 -0 -0 -0 -0 -0 -0 0 0 0 0 0 0 0 0 0 0 0 0 0 0 0 0 0
1 0 -0 -0 0 -0 -0 -0 -0 -0 -0 -0 -0 -0 -0 -0 -0 -0 -0 -0 -0 -0 -0 -0 -0 -0 0 0 0 0 0 0 0 0 0 0 0 0 0 0 0 0 1
1 1 0 0 0 0 0 0 -0 -0 -0 -0 -0 -0 -0 -0 -0 -0 -0 -0 -0 -0 -0 -0 -0 0 0 0 0 0 0 0 0 0 0 0 0 0 0 1 1 1 1
1 1 1 0 0 0 0 0 0 0 -0 -0 -0 0 0 0 0 0 -0 -0 -0 -0 -0 -0 0 0 0 0 0 0 0 0 0 0 0 0 0 1 1 1 1 1 1
2 2 1 1 0 0 0 0 0 0 0 0 0 0 0 0 0 0 -0 -0 -0 -0 -0 0 0 0 0 0 0 -0 0 0 0 0 0 0 1 1 1 1 0 0 0
2 2 1 1 0 0 0 0 0 0 0 0 0 0 0 0 0 0 0 -0 0 0 0 0 0 0 0 0 0 -0 0 0 0 0 0 0 1 1 0 0 0 0 0
2 2 1 1 1 1 0 0 0 0 0 0 0 0 0 0 0 0 0 0 0 0 0 0 0 0 -0 0 0 0 0 0 0 0 0 1 1 0 0 0 0 0 0
1 2 2 1 1 1 0 0 1 0 0 0 0 0 0 0 0 0 -0 0 0 -0 -0 -0 0 -0 -0 0 0 0 0 0 0 0 0 1 0 0 0 0 0 0 0
1 2 2 2 1 1 1 0 1 1 1 0 0 0 0 0 0 -0 -0 -0 -0 -0 -0 -0 -0 -0 -0 0 0 0 0 0 0 0 0 0 0 0 0 0 0 0 0
1 1 2 2 2 1 1 1 1 0 0 0 0 0 0 0 0 -0 -0 -0 -0 -0 0 0 -0 -0 0 -0 0 0 0 0 0 0 0 0 0 0 0 0 0 0 0
3 1 2 2 2 2 1 1 0 0 0 0 0 0 0 0 0 0 0 0 -0 -0 -0 -0 -0 -0 0 0 0 0 0 0 0 0 0 0 0 0 0 0 0 0 0
3 2 2 2 2 2 1 0 0 0 0 0 0 0 0 0 0 0 0 0 -0 -0 0 0 0 -0 0 0 0 0 0 0 0 0 0 0 0 0 0 0 0 -0 0
1 1 1 0 1 1 0 0 0 0 0 0 0 0 0 0 0 0 0 0 0 0 0 0 0 0 0 0 0 0 0 0 0 0 0 0 0 0 0 0 -0 0 0
1 1 1 2 0 0 0 0 0 0 0 0 0 0 0 0 0 0 0 0 0 0 0 0 0 0 0 0 0 0 0 0 0 0 0 0 0 0 0 0 0 0 0
1 1 2 1 0 0 0 0 0 0 0 0 0 0 0 0 0 0 0 0 0 0 0 0 0 0 0 0 0 0 0 0 0 0 0 0 0 0 0 0 0 0 0
1 1 1 1 1 1 2 0 0 0 0 0 0 0 0 0 0 0 0 0 0 0 0 0 0 0 0 0 0 0 0 0 0 0 0 0 0 0 0 0 0 0 0
1 1 1 2 2 1 2 1 1 0 0 0 0 0 0 0 0 0 0 0 0 0 0 0 0 0 0 0 0 0 0 0 0 0 0 0 0 0 0 0 0 0 0
1 2 2 2 2 1 1 1 1 0 0 0 0 0 0 0 0 0 0 0 0 0 0 0 0 0 0 0 0 0 0 0 0 0 0 0 0 0 0 0 0 0 0
1 2 1 1 1 1 0 2 3 3 3 2 1 0 0 0 0 0 0 0 0 0 0 0 0 0 0 0 0 0 0 0 0 0 0 0 0 0 0 0 0 0 0
1 2 2 1 1 0 0 2 2 1 2 2 1 1 1 0 0 0 0 0 0 0 0 0 0 0 -0 0 0 0 0 0 0 0 0 0 0 0 0 0 0 0 0
1 2 2 2 1 0 1 1 2 2 2 2 1 1 0 0 0 0 0 0 0 0 0 0 0 0 0 0 0 0 0 0 0 0 0 0 0 0 0 0 0 0 0
0 2 2 2 1 1 2 0 2 2 2 2 1 1 0 0 0 0 0 0 0 0 0 0 0 0 0 0 0 0 0 0 0 0 0 0 0 0 0 0 0 0 0
Wind_Speed_500mb
55 66 61 59 59 58 54 47 39 35 37 41 46 49 48 46 41 40 44 50 48 43 38 35 33 29 26 23 21 24 25 26 25 28 24 19 24 28 31 35 36 34 31
70 73 65 63 60 58 54 49 41 36 37 41 45 49 49 47 43 46 49 50 47 40 35 34 31 27 24 23 22 24 24 24 24 21 17 13 14 23 27 33 37 37 32
73 78 71 66 62 59 55 51 44 38 39 42 45 50 50 47 46 49 53 49 43 37 34 33 29 26 24 23 23 23 24 27 25 17 12 11 11 20 24 31 38 35 30
67 77 76 69 63 60 56 53 48 41 40 45 48 51 51 48 48 51 52 47 40 38 33 29 26 23 23 22 21 22 24 23 21 16 12 9 14 18 22 31 34 35 31
71 75 73 69 67 61 60 56 50 46 42 45 49 51 50 50 50 51 49 45 40 36 30 26 24 22 20 19 18 19 20 21 19 6 2 6 13 12 21 30 36 34 31
68 74 72 68 67 64 61 60 55 49 45 44 48 50 50 50 49 47 43 40 36 30 24 21 19 19 18 16 14 15 17 18 13 6 8 13 10 7 17 24 34 34 32
71 75 71 68 66 64 60 59 58 53 47 45 46 47 48 48 47 43 40 36 32 27 22 19 17 15 14 13 12 13 15 12 11 5 7 13 3 7 16 26 34 32 31
77 79 74 69 65 62 61 59 56 53 49 45 46 47 46 46 44 40 36 33 30 27 23 18 15 12 11 12 14 16 17 10 7 9 5 6 2 9 17 28 34 31 31
79 82 77 71 66 62 60 59 56 53 49 45 43 45 45 43 40 37 33 31 28 23 20 17 14 10 11 17 19 19 19 15 11 4 2 1 3 12 22 29 28 29 32
81 80 78 73 68 65 62 58 57 52 49 45 43 44 44 42 38 34 30 26 22 19 17 15 12 12 17 20 20 18 15 9 4 4 3 5 6 16 23 26 30 32 31
78 79 76 72 69 67 64 60 56 53 48 45 44 44 44 40 36 32 28 23 19 17 15 13 13 17 24 22 23 21 14 4 5 6 10 2 8 16 22 29 32 35 36
79 81 78 72 71 68 66 63 58 57 52 47 45 45 43 38 34 31 27 22 19 18 17 15 17 20 23 16 12 15 7 1 1 7 11 1 11 21 27 35 40 39 41
67 84 82 78 73 71 69 66 62 59 54 48 45 44 44 39 35 31 26 23 21 19 18 19 19 21 18 13 12 11 3 5 7 15 4 10 15 22 32 34 38 40 41
72 75 85 81 77 73 69 66 63 60 55 51 47 46 46 43 37 29 25 22 21 19 19 19 20 18 10 7 8 6 6 11 8 5 1 14 16 25 34 37 39 42 36
76 76 81 85 81 76 68 65 62 57 53 50 49 49 49 43 34 28 22 20 20 19 19 16 16 14 9 7 6 11 9 9 6 1 11 17 23 26 38 39 44 44 39
69 78 79 87 82 75 69 62 60 57 54 50 50 52 51 42 30 28 26 22 23 20 15 13 13 13 13 11 12 16 14 15 13 16 18 17 20 29 33 40 43 41 38
67 75 82 82 78 75 69 62 58 54 52 48 50 52 49 42 31 23 26 23 21 18 13 15 20 28 23 17 17 19 9 21 9 17 18 19 21 28 30 40 40 35 33
47 70 72 79 75 64 61 59 57 54 51 48 51 55 49 38 34 29 30 23 21 19 19 14 17 16 27 21 22 26 33 11 14 18 18 16 19 23 28 37 34 32 31
44 68 74 79 79 71 54 48 54 49 50 48 53 61 52 44 40 40 35 32 34 30 25 25 24 18 22 23 27 25 13 15 15 15 16 12 15 16 26 30 33 33 35
29 64 56 76 80 77 65 45 46 48 46 44 47 59 56 49 44 43 38 36 36 35 30 23 17 21 20 21 23 6 10 15 13 10 3 5 8 16 23 29 31 32 29
35 60 72 81 79 84 71 51 45 52 47 47 42 46 60 51 47 40 41 38 34 31 28 32 31 27 27 24 20 4 9 8 12 10 11 5 11 15 19 25 31 36 32
33 53 88 82 80 87 81 84 65 56 51 41 42 43 45 44 48 41 44 42 30 34 37 38 31 26 21 16 12 12 14 14 10 5 5 8 11 9 12 19 27 30 35
48 58 68 89 85 88 80 88 78 64 56 41 53 50 46 52 53 44 42 37 30 34 36 31 28 24 18 19 15 9 9 14 15 19 15 10 7 6 3 11 14 18 27
50 62 65 92 92 94 96 92 94 92 70 67 72 61 63 56 50 42 38 41 32 34 32 26 21 20 15 9 7 9 11 7 9 10 18 15 7 2 3 8 6 9 20
42 66 76 91 93 92 111 88 88 80 78 76 78 69 68 59 55 44 32 40 35 31 24 19 19 11 16 9 8 6 2 1 4 7 6 12 19 21 18 10 14 13 25
43 65 84 99 98 104 104 99 91 85 88 85 78 78 75 66 58 44 36 31 32 24 18 19 20 21 12 10 5 3 2 4 5 7 8 6 9 13 19 23 17 17 28
Wind_Direction_500mb
179 171 165 167 162 160 156 152 145 138 141 148 151 155 158 156 156 153 148 146 146 144 142 137 138 136 129 124 121 114 111 111 102 103 99 81 61 43 34 27 17 10 7
174 170 166 168 164 162 159 154 147 141 143 147 150 152 155 155 157 154 151 150 148 144 140 137 138 134 129 130 125 122 124 116 110 104 98 76 63 41 28 23 10 3 1
173 167 167 169 167 164 161 156 151 148 148 149 150 151 150 152 155 156 154 152 148 144 142 140 137 134 133 134 133 132 133 123 113 105 105 94 80 37 22 12 5 357 358
175 168 168 169 170 166 164 160 155 152 152 151 152 152 152 153 158 159 157 154 148 142 143 145 144 145 143 140 140 140 137 130 118 108 100 95 56 41 11 5 2 353 353
173 170 170 170 170 169 166 163 159 156 157 155 154 155 157 158 160 161 160 156 151 145 143 141 146 152 149 146 146 143 137 143 128 132 29 80 63 27 5 3 354 354 349
172 172 172 172 172 171 171 166 163 161 159 159 159 159 161 161 161 163 162 159 157 158 156 152 149 152 150 147 143 139 141 157 138 127 95 73 57 355 2 358 350 346 342
171 174 174 174 174 172 173 169 165 163 162 163 162 162 162 162 161 164 165 166 164 167 163 161 161 160 150 140 132 132 134 165 157 164 51 82 180 5 5 349 346 342 336
171 175 176 176 176 176 175 174 169 167 164 167 167 165 165 163 161 163 167 170 169 170 169 171 172 166 145 127 122 125 126 143 153 167 107 111 335 6 355 344 340 339 333
176 175 176 176 178 178 178 175 173 171 168 170 171 168 168 168 164 162 166 169 172 177 177 180 183 164 137 124 129 131 142 129 119 165 328 171 3 359 350 344 343 339 334
179 179 178 178 179 179 180 178 176 176 172 173 173 173 173 172 168 164 166 169 171 180 186 188 182 162 138 131 131 135 145 137 153 253 270 119 358 352 341 347 349 341 340
183 184 181 181 181 182 181 179 179 178 178 176 176 178 179 178 171 167 167 176 181 187 195 192 180 162 152 134 125 136 126 110 345 301 153 190 347 336 347 350 344 341 340
188 189 186 186 184 184 183 181 181 181 181 183 181 181 183 182 175 174 177 183 188 190 190 183 176 166 167 161 152 150 124 212 13 109 143 11 328 344 354 345 340 338 338
188 190 191 189 189 187 185 184 185 185 184 186 187 185 184 183 182 183 186 189 189 187 177 173 167 163 158 151 130 130 162 169 156 146 169 337 329 350 347 333 336 336 340
188 190 193 192 190 190 189 188 189 190 189 189 188 188 186 186 187 189 185 189 184 175 167 168 164 169 155 176 194 193 177 193 183 216 314 324 336 342 328 332 344 347 358
191 192 191 192 192 193 192 192 193 194 196 194 191 189 190 188 181 176 167 174 176 170 172 174 180 177 145 146 177 223 211 182 151 71 316 318 315 321 323 337 349 357 0
200 200 192 191 195 192 192 197 196 197 199 196 194 192 191 190 170 167 158 148 162 158 155 175 191 192 204 206 238 213 232 271 300 306 298 306 304 316 330 341 356 358 2
210 196 190 192 193 191 193 196 201 201 203 200 197 194 192 189 178 181 189 187 183 197 209 233 248 229 231 222 212 222 259 293 247 281 300 315 301 321 331 347 2 360 6
224 199 189 190 188 191 193 197 200 205 204 200 196 192 192 191 187 194 201 203 197 208 206 190 208 200 193 219 252 258 270 204 264 282 298 289 312 324 343 356 5 10 8
224 203 188 190 187 188 190 199 200 204 205 197 195 191 196 194 195 203 208 215 219 221 217 227 229 242 245 252 271 266 246 256 253 283 284 304 315 332 353 9 13 14 12
220 205 197 191 187 183 180 190 198 203 209 201 201 199 201 205 203 208 213 216 211 216 227 236 242 244 237 256 276 295 236 245 275 272 239 257 317 348 11 14 28 19 18
208 202 196 183 189 187 177 175 192 199 202 197 199 206 204 208 211 215 215 210 216 225 231 234 238 244 258 275 288 248 265 240 217 142 153 255 328 350 17 24 26 21 14
209 210 205 206 199 189 195 191 205 198 200 199 201 202 200 211 208 213 210 215 222 231 240 245 250 263 264 275 258 212 138 116 109 152 219 321 343 19 26 20 15 11 12
211 208 215 205 197 195 183 189 192 192 191 196 213 209 205 208 210 213 213 216 217 229 240 248 259 258 267 254 252 240 189 216 215 216 244 323 300 350 358 351 347 359 4
222 211 209 212 204 208 203 200 193 192 195 200 213 210 206 203 205 211 219 218 223 232 240 239 242 254 259 249 211 163 182 202 230 239 252 318 42 341 317 311 291 349 13
230 213 211 215 207 201 194 201 197 194 195 199 208 204 201 200 206 210 217 220 226 232 221 232 239 199 156 151 154 140 204 248 290 287 309 79 91 95 75 68 77 57 6
241 217 215 212 208 210 207 203 200 196 196 198 202 199 195 195 198 205 211 211 208 207 196 164 165 153 148 154 174 186 214 268 345 345 340 23 155 86 63 92 92 358 342
Wind_Speed_850mb
55 66 61 59 59 58 54 47 39 35 37 41 46 49 48 46 41 40 44 50 48 43 38 35 33 29 26 23 21 24 25 26 25 28 24 19 24 28 31 35 36 34 31
70 73 65 63 60 58 54 49 41 36 37 41 45 49 49 47 43 46 49 50 47 40 35 34 31 27 24 23 22 24 24 24 24 21 17 13 14 23 27 33 37 37 32
73 78 71 66 62 59 55 51 44 38 39 42 45 50 50 47 46 49 53 49 43 37 34 33 29 26 24 23 23 23 24 27 25 17 12 11 11 20 24 31 38 35 30
67 77 76 69 63 60 56 53 48 41 40 45 48 51 51 48 48 51 52 47 40 38 33 29 26 23 23 22 21 22 24 23 21 16 12 9 14 18 22 31 34 35 31
71 75 73 69 67 61 60 56 50 46 42 45 49 51 50 50 50 51 49 45 40 36 30 26 24 22 20 19 18 19 20 21 19 6 2 6 13 12 21 30 36 34 31
68 74 72 68 67 64 61 60 55 49 45 44 48 50 50 50 49 47 43 40 36 30 24 21 19 19 18 16 14 15 17 18 13 6 8 13 10 7 17 24 34 34 32
71 75 71 68 66 64 60 59 58 53 47 45 46 47 48 48 47 43 40 36 32 27 22 19 17 15 14 13 12 13 15 12 11 5 7 13 3 7 16 26 34 32 31
77 79 74 69 65 62 61 59 56 53 49 45 46 47 46 46 44 40 36 33 30 27 23 18 15 12 11 12 14 16 17 10 7 9 5 6 2 9 17 28 34 31 31
79 82 77 71 66 62 60 59 56 53 49 45 43 45 45 43 40 37 33 31 28 23 20 17 14 10 11 17 19 19 19 15 11 4 2 1 3 12 22 29 28 29 32
81 80 78 73 68 65 62 58 57 52 49 45 43 44 44 42 38 34 30 26 22 19 17 15 12 12 17 20 20 18 15 9 4 4 3 5 6 16 23 26 30 32 31
78 79 76 72 69 67 64 60 56 53 48 45 44 44 44 40 36 32 28 23 19 17 15 13 13 17 24 22 23 21 14 4 5 6 10 2 8 16 22 29 32 35 36
79 81 78 72 71 68 66 63 58 57 52 47 45 45 43 38 34 31 27 22 19 18 17 15 17 20 23 16 12 15 7 1 1 7 11 1 11 21 27 35 40 39 41
67 84 82 78 73 71 69 66 62 59 54 48 45 44 44 39 35 31 26 23 21 19 18 19 19 21 18 13 12 11 3 5 7 15 4 10 15 22 32 34 38 40 41
72 75 85 81 77 73 69 66 63 60 55 51 47 46 46 43 37 29 25 22 21 19 19 19 20 18 10 7 8 6 6 11 8 5 1 14 16 25 34 37 39 42 36
76 76 81 85 81 76 68 65 62 57 53 50 49 49 49 43 34 28 22 20 20 19 19 16 16 14 9 7 6 11 9 9 6 1 11 17 23 26 38 39 44 44 39
69 78 79 87 82 75 69 62 60 57 54 50 50 52 51 42 30 28 26 22 23 20 15 13 13 13 13 11 12 16 14 15 13 16 18 17 20 29 33 40 43 41 38
67 75 82 82 78 75 69 62 58 54 52 48 50 52 49 42 31 23 26 23 21 18 13 15 20 28 23 17 17 19 9 21 9 17 18 19 21 28 30 40 40 35 33
47 70 72 79 75 64 61 59 57 54 51 48 51 55 49 38 34 29 30 23 21 19 19 14 17 16 27 21 22 26 33 11 14 18 18 16 19 23 28 37 34 32 31
44 68 74 79 79 71 54 48 54 49 50 48 53 61 52 44 40 40 35 32 34 30 25 25 24 18 22 23 27 25 13 15 15 15 16 12 15 16 26 30 33 33 35
29 64 56 76 80 77 65 45 46 48 46 44 47 59 56 49 44 43 38 36 36 35 30 23 17 21 20 21 23 6 10 15 13 10 3 5 8 16 23 29 31 32 29
35 60 72 81 79 84 71 51 45 52 47 47 42 46 60 51 47 40 41 38 34 31 28 32 31 27 27 24 20 4 9 8 12 10 11 5 11 15 19 25 31 36 32
33 53 88 82 80 87 81 84 65 56 51 41 42 43 45 44 48 41 44 42 30 34 37 38 31 26 21 16 12 12 14 14 10 5 5 8 11 9 12 19 27 30 35
48 58 68 89 85 88 80 88 78 64 56 41 53 50 46 52 53 44 42 37 30 34 36 31 28 24 18 19 15 9 9 14 15 19 15 10 7 6 3 11 14 18 27
50 62 65 92 92 94 96 92 94 92 70 67 72 61 63 56 50 42 38 41 32 34 32 26 21 20 15 9 7 9 11 7 9 10 18 15 7 2 3 8 6 9 20
42 66 76 91 93 92 111 88 88 80 78 76 78 69 68 59 55 44 32 40 35 31 24 19 19 11 16 9 8 6 2 1 4 7 6 12 19 21 18 10 14 13 25
43 65 84 99 98 104 104 99 91 85 88 85 78 78 75 66 58 44 36 31 32 24 18 19 20 21 12 10 5 3 2 4 5 7 8 6 9 13 19 23 17 17 28
Wind_Direction_850mb
179 171 165 167 162 160 156 152 145 138 141 148 151 155 158 156 156 153 148 146 146 144 142 137 138 136 129 124 121 114 111 111 102 103 99 81 61 43 34 27 17 10 7
174 170 166 168 164 162 159 154 147 141 143 147 150 152 155 155 157 154 151 150 148 144 140 137 138 134 129 130 125 122 124 116 110 104 98 76 63 41 28 23 10 3 1
173 167 167 169 167 164 161 156 151 148 148 149 150 151 150 152 155 156 154 152 148 144 142 140 137 134 133 134 133 132 133 123 113 105 105 94 80 37 22 12 5 357 358
175 168 168 169 170 166 164 160 155 152 152 151 152 152 152 153 158 159 157 154 148 142 143 145 144 145 143 140 140 140 137 130 118 108 100 95 56 41 11 5 2 353 353
173 170 170 170 170 169 166 163 159 156 157 155 154 155 157 158 160 161 160 156 151 145 143 141 146 152 149 146 146 143 137 143 128 132 29 80 63 27 5 3 354 354 349
172 172 172 172 172 171 171 166 163 161 159 159 159 159 161 161 161 163 162 159 157 158 156 152 149 152 150 147 143 139 141 157 138 127 95 73 57 355 2 358 350 346 342
171 174 174 174 174 172 173 169 165 163 162 163 162 162 162 162 161 164 165 166 164 167 163 161 161 160 150 140 132 132 134 165 157 164 51 82 180 5 5 349 346 342 336
171 175 176 176 176 176 175 174 169 167 164 167 167 165 165 163 161 163 167 170 169 170 169 171 172 166 145 127 122 125 126 143 153 167 107 111 335 6 355 344 340 339 333
176 175 176 176 178 178 178 175 173 171 168 170 171 168 168 168 164 162 166 169 172 177 177 180 183 164 137 124 129 131 142 129 119 165 328 171 3 359 350 344 343 339 334
179 179 178 178 179 179 180 178 176 176 172 173 173 173 173 172 168 164 166 169 171 180 186 188 182 162 138 131 131 135 145 137 153 253 270 119 358 352 341 347 349 341 340
183 184 181 181 181 182 181 179 179 178 178 176 176 178 179 178 171 167 167 176 181 187 195 192 180 162 152 134 125 136 126 110 345 301 153 190 347 336 347 350 344 341 340
188 189 186 186 184 184 183 181 181 181 181 183 181 181 183 182 175 174 177 183 188 190 190 183 176 166 167 161 152 150 124 212 13 109 143 11 328 344 354 345 340 338 338
188 190 191 189 189 187 185 184 185 185 184 186 187 185 184 183 182 183 186 189 189 187 177 173 167 163 158 151 130 130 162 169 156 146 169 337 329 350 347 333 336 336 340
188 190 193 192 190 190 189 188 189 190 189 189 188 188 186 186 187 189 185 189 184 175 167 168 164 169 155 176 194 193 177 193 183 216 314 324 336 342 328 332 344 347 358
191 192 191 192 192 193 192 192 193 194 196 194 191 189 190 188 181 176 167 174 176 170 172 174 180 177 145 146 177 223 211 182 151 71 316 318 315 321 323 337 349 357 0
200 200 192 191 195 192 192 197 196 197 199 196 194 192 191 190 170 167 158 148 162 158 155 175 191 192 204 206 238 213 232 271 300 306 298 306 304 316 330 341 356 358 2
210 196 190 192 193 191 193 196 201 201 203 200 197 194 192 189 178 181 189 187 183 197 209 233 248 229 231 222 212 222 259 293 247 281 300 315 301 321 331 347 2 360 6
224 199 189 190 188 191 193 197 200 205 204 200 196 192 192 191 187 194 201 203 197 208 206 190 208 200 193 219 252 258 270 204 264 282 298 289 312 324 343 356 5 10 8
224 203 188 190 187 188 190 199 200 204 205 197 195 191 196 194 195 203 208 215 219 221 217 227 229 242 245 252 271 266 246 256 253 283 284 304 315 332 353 9 13 14 12
220 205 197 191 187 183 180 190 198 203 209 201 201 199 201 205 203 208 213 216 211 216 227 236 242 244 237 256 276 295 236 245 275 272 239 257 317 348 11 14 28 19 18
208 202 196 183 189 187 177 175 192 199 202 197 199 206 204 208 211 215 215 210 216 225 231 234 238 244 258 275 288 248 265 240 217 142 153 255 328 350 17 24 26 21 14
209 210 205 206 199 189 195 191 205 198 200 199 201 202 200 211 208 213 210 215 222 231 240 245 250 263 264 275 258 212 138 116 109 152 219 321 343 19 26 20 15 11 12
211 208 215 205 197 195 183 189 192 192 191 196 213 209 205 208 210 213 213 216 217 229 240 248 259 258 267 254 252 240 189 216 215 216 244 323 300 350 358 351 347 359 4
222 211 209 212 204 208 203 200 193 192 195 200 213 210 206 203 205 211 219 218 223 232 240 239 242 254 259 249 211 163 182 202 230 239 252 318 42 341 317 311 291 349 13
230 213 211 215 207 201 194 201 197 194 195 199 208 204 201 200 206 210 217 220 226 232 221 232 239 199 156 151 154 140 204 248 290 287 309 79 91 95 75 68 77 57 6
241 217 215 212 208 210 207 203 200 196 196 198 202 199 195 195 198 205 211 211 208 207 196 164 165 153 148 154 174 186 214 268 345 345 340 23 155 86 63 92 92 358 342